Time,TemperatureF,DewpointF,PressureIn,WindDirection,WindDirectionDegrees,WindSpeedMPH,WindSpeedGustMPH,Humidity,HourlyPrecipIn,Conditions,Clouds,dailyrainin,SoftwareType,DateUTC
2013-11-09 00:23:00,35.0,28.0,-100.00,North,5,8.0,10.0,76,0.00,,,-99.99,,2013-11-09 05:23:00,
2013-11-09 00:53:00,36.0,28.0,-100.00,North,5,7.0,10.0,73,0.00,,,-99.99,,2013-11-09 05:53:00,
2013-11-09 01:03:00,36.0,28.0,-100.00,North,5,7.0,10.0,73,0.00,,,-99.99,,2013-11-09 06:03:00,
2013-11-09 01:23:00,35.0,28.0,-100.00,North,5,7.0,7.0,73,0.00,,,-99.99,,2013-11-09 06:23:00,
2013-11-09 01:54:00,35.0,28.0,-100.00,North,5,7.0,9.0,73,0.00,,,-99.99,,2013-11-09 06:54:00,
2013-11-09 02:22:00,35.0,28.0,-100.00,North,5,7.0,9.0,73,0.00,,,-99.99,,2013-11-09 07:22:00,
2013-11-09 02:52:00,36.0,28.0,-100.00,North,5,8.0,10.0,72,0.00,,,-99.99,,2013-11-09 07:52:00,
2013-11-09 03:21:00,37.0,28.0,-100.00,North,5,9.0,12.0,67,0.00,,,-99.99,,2013-11-09 08:21:00,
2013-11-09 03:52:00,38.0,27.0,-100.00,North,5,10.0,13.0,64,0.00,,,-99.99,,2013-11-09 08:52:00,
2013-11-09 04:22:00,38.0,27.0,-100.00,North,5,11.0,14.0,62,0.00,,,-99.99,,2013-11-09 09:22:00,
2013-11-09 04:53:00,39.0,26.0,-100.00,North,5,14.0,18.0,58,0.00,,,-99.99,,2013-11-09 09:53:00,
2013-11-09 05:23:00,39.0,26.0,-100.00,North,5,12.0,19.0,58,0.00,,,-99.99,,2013-11-09 10:23:00,
2013-11-09 05:52:00,40.0,26.0,-100.00,North,5,15.0,21.0,57,0.00,,,-99.99,,2013-11-09 10:52:00,
2013-11-09 06:22:00,40.0,26.0,-100.00,North,5,18.0,22.0,56,0.00,,,-99.99,,2013-11-09 11:22:00,
2013-11-09 06:52:00,40.0,25.0,-100.00,North,5,17.0,24.0,54,0.00,,,-99.99,,2013-11-09 11:52:00,
2013-11-09 07:21:00,40.0,25.0,-100.00,North,5,17.0,25.0,53,0.00,,,-99.99,,2013-11-09 12:21:00,
2013-11-09 07:52:00,41.0,25.0,-100.00,North,5,14.0,21.0,51,0.00,,,-99.99,,2013-11-09 12:52:00,
2013-11-09 08:02:00,41.0,25.0,-100.00,North,5,14.0,21.0,51,0.00,,,-99.99,,2013-11-09 13:02:00,
2013-11-09 08:22:00,41.0,25.0,-100.00,North,5,17.0,24.0,52,0.00,,,-99.99,,2013-11-09 13:22:00,
2013-11-09 08:52:00,41.0,25.0,-100.00,North,5,20.0,27.0,52,0.00,,,-99.99,,2013-11-09 13:52:00,
2013-11-09 09:22:00,42.0,24.0,-100.00,North,5,22.0,28.0,49,0.00,,,-99.99,,2013-11-09 14:22:00,
2013-11-09 09:52:00,44.0,25.0,-100.00,North,5,19.0,27.0,47,0.00,,,-99.99,,2013-11-09 14:52:00,
2013-11-09 10:22:00,47.0,25.0,-100.00,North,5,21.0,26.0,40,0.00,,,-99.99,,2013-11-09 15:22:00,
2013-11-09 10:53:00,49.0,24.0,-100.00,North,5,22.0,31.0,37,0.00,,,-99.99,,2013-11-09 15:53:00,
2013-11-09 11:24:00,49.0,25.0,-100.00,North,5,21.0,29.0,38,0.00,,,-99.99,,2013-11-09 16:24:00,
2013-11-09 11:52:00,52.0,26.0,-100.00,North,5,21.0,28.0,36,0.00,,,-99.99,,2013-11-09 16:52:00,
2013-11-09 12:24:00,54.0,27.0,-100.00,North,5,18.0,29.0,35,0.00,,,-99.99,,2013-11-09 17:24:00,
2013-11-09 12:52:00,55.0,28.0,-100.00,North,5,25.0,34.0,35,0.00,,,-99.99,,2013-11-09 17:52:00,
2013-11-09 13:23:00,55.0,29.0,-100.00,North,5,25.0,34.0,36,0.00,,,-99.99,,2013-11-09 18:23:00,
2013-11-09 13:52:00,56.0,29.0,-100.00,North,5,24.0,35.0,36,0.00,,,-99.99,,2013-11-09 18:52:00,
2013-11-09 14:23:00,56.0,30.0,-100.00,North,5,25.0,37.0,35,0.00,,,-99.99,,2013-11-09 19:23:00,
2013-11-09 14:52:00,57.0,30.0,-100.00,North,5,23.0,30.0,35,0.00,,,-99.99,,2013-11-09 19:52:00,
2013-11-09 15:22:00,57.0,31.0,-100.00,North,5,25.0,36.0,35,0.00,,,-99.99,,2013-11-09 20:22:00,
2013-11-09 15:52:00,58.0,31.0,-100.00,North,5,17.0,32.0,36,0.00,,,-99.99,,2013-11-09 20:52:00,
2013-11-09 16:22:00,57.0,31.0,-100.00,North,5,18.0,29.0,36,0.00,,,-99.99,,2013-11-09 21:22:00,
2013-11-09 16:54:00,56.0,31.0,-100.00,North,5,17.0,29.0,38,0.00,,,-99.99,,2013-11-09 21:54:00,
2013-11-09 17:24:00,56.0,31.0,-100.00,North,5,22.0,29.0,37,0.00,,,-99.99,,2013-11-09 22:24:00,
2013-11-09 17:54:00,55.0,31.0,-100.00,North,5,16.0,19.0,40,0.00,,,-99.99,,2013-11-09 22:54:00,
2013-11-09 18:13:00,55.0,31.0,-100.00,North,5,16.0,19.0,40,0.00,,,-99.99,,2013-11-09 23:13:00,
2013-11-09 18:22:00,54.0,31.0,-100.00,North,5,12.0,16.0,42,0.00,,,-99.99,,2013-11-09 23:22:00,
2013-11-09 18:53:00,53.0,32.0,-100.00,North,5,12.0,16.0,44,0.00,,,-99.99,,2013-11-09 23:53:00,
2013-11-09 19:12:00,53.0,32.0,-100.00,North,5,14.0,18.0,44,0.00,,,-99.99,,2013-11-10 00:12:00,
2013-11-09 19:22:00,54.0,33.0,-100.00,North,5,14.0,19.0,44,0.00,,,-99.99,,2013-11-10 00:22:00,
2013-11-09 19:52:00,53.0,33.0,-100.00,North,5,12.0,17.0,45,0.00,,,-99.99,,2013-11-10 00:52:00,
2013-11-09 20:21:00,53.0,33.0,-100.00,North,5,15.0,18.0,46,0.00,,,-99.99,,2013-11-10 01:21:00,
2013-11-09 20:52:00,53.0,33.0,-100.00,North,5,14.0,19.0,46,0.00,,,-99.99,,2013-11-10 01:52:00,
2013-11-09 21:22:00,53.0,33.0,-100.00,North,5,18.0,23.0,47,0.00,,,-99.99,,2013-11-10 02:22:00,
2013-11-09 21:52:00,52.0,34.0,-100.00,North,5,16.0,24.0,50,0.00,,,-99.99,,2013-11-10 02:52:00,
2013-11-09 22:22:00,51.0,34.0,-100.00,North,5,16.0,21.0,50,0.00,,,-99.99,,2013-11-10 03:22:00,
2013-11-09 22:54:00,50.0,34.0,-100.00,North,5,13.0,19.0,52,0.00,,,-99.99,,2013-11-10 03:54:00,
2013-11-09 23:02:00,-999.0,-99.9,-100.00,North,5,13.0,19.0,-999,-99.99,,,-99.99,,2013-11-10 04:02:00,
2013-11-09 23:23:00,49.0,34.0,-100.00,North,5,12.0,17.0,55,0.00,,,-99.99,,2013-11-10 04:23:00,
2013-11-09 23:34:00,49.0,34.0,-100.00,North,5,12.0,17.0,55,0.00,,,-99.99,,2013-11-10 04:34:00,
2013-11-09 23:52:00,47.0,35.0,-100.00,North,5,12.0,14.0,62,0.00,,,-99.99,,2013-11-10 04:52:00,